Regional Weather Roundup
Issued by NWS Wilmington, NC

Current Version | Previous Version | Text Only | Print | Product List | Glossary On
Versions: 1 2 3 4 5 6 7 8 9 10 11 12 13 14 15 16 17 18 19 20 21 22 23 24 25 26 27
000
ASUS42 KILM 250212
RWRILM
RWRILM
REGIONAL HOURLY WEATHER ROUNDUP
NATIONAL WEATHER SERVICE WILMINGTON NC
900 PM EST TUE JAN 24 2017

NOTE: "FAIR" INDICATES FEW OR NO CLOUDS BELOW 12,000 FEET WITH NO
SIGNIFICANT WEATHER AND/OR OBSTRUCTIONS TO VISIBILITY.

...............WFO WILMINGTON COUNTY WARNING AREA...............

......COASTAL NC AND SC COUNTIES......

CITY           SKY/WX    TMP DP  RH WIND       PRES   REMARKS
WILMINGTON     CLEAR     49  45  86 W5        29.79R
N MYRTLE BEACH CLEAR     49  46  90 W5        29.81R
MYRTLE BEACH   CLEAR     55  41  58 W7        29.83

......INLAND NC AND SC COUNTIES.......

CITY           SKY/WX    TMP DP  RH WIND       PRES   REMARKS
LUMBERTON      CLEAR     47  43  86 NW3       29.80R
ELIZABETHTOWN  CLEAR     50  42  73 CALM      29.80R
WHITEVILLE     CLEAR     51  42  70 CALM      29.80R
FLORENCE       CLEAR     55  43  63 W7        29.82R
DARLINGTON     CLEAR     53  43  68 W7        29.82R
KINGSTREE      FAIR      46  41  81 CALM      29.83S
HARTSVILLE     FAIR      48  41  76 CALM      29.81S
BENNETTSVILLE  FAIR      55  43  62 SW5       29.81R
CONWAY         FAIR      50  45  81 CALM      29.82R
GEORGETOWN     FAIR      48  43  81 W6        29.85R
MARION         FAIR      52  43  71 W6        29.81R

....................REST OF NORTH CAROLINA......................

.........EASTERN NC.........

CITY           SKY/WX    TMP DP  RH WIND       PRES   REMARKS
CAPE HATTERAS  CLEAR     54  44  69 W12G22    29.70R
JACKSONVILLE   CLEAR     48  42  80 SW5       29.78R
MOREHEAD CITY  CLEAR     54  43  66 W12       29.76R
KENANSVILLE    CLEAR     52  41  66 W3        29.78R
NEW BERN       CLEAR     50  41  71 W5        29.77R
ELIZABETH CITY CLEAR     47  40  76 W12       29.69R

.........CENTRAL NC.........

CITY           SKY/WX    TMP DP  RH WIND       PRES   REMARKS
RALEIGH DURHAM CLEAR     50  37  61 W3        29.79R
ROCKY MOUNT    CLEAR     52  40  63 W10       29.76R
ROANOKE RAPIDS NOT AVBL
FAYETTEVILLE   CLEAR     56  39  53 NW3       29.79R
HOFFMAN        CLEAR     43  40  89 SW3       29.80R

.........WESTERN NC.........

CITY           SKY/WX    TMP DP  RH WIND       PRES   REMARKS
CHARLOTTE      CLEAR     51  36  56 NW6       29.82R
GREENSBORO     CLEAR     47  38  71 NW6       29.79R
HICKORY        NOT AVBL
BOONE          NOT AVBL
ASHEVILLE      NOT AVBL

.....................REST OF SOUTH CAROLINA.....................

.........EASTERN SC.........

CITY           SKY/WX    TMP DP  RH WIND       PRES   REMARKS
CHARLESTON     CLEAR     55  44  66 W5        29.85R
BEAUFORT MCAS  CLEAR     51  45  79 SW6       29.87R
HILTON HEAD    CLEAR     48  46  93 W5        29.88S

.........CENTRAL SC.........

CITY           SKY/WX    TMP DP  RH WIND       PRES   REMARKS
COLUMBIA       CLEAR     51  43  74 W5        29.83R
ORANGEBURG     CLEAR     52  45  77 SW6       29.84R
SUMTER SHAW    CLEAR     53  41  64 W3        29.80S

.........WESTERN SC.........

CITY           SKY/WX    TMP DP  RH WIND       PRES   REMARKS
GREENVILLE     NOT AVBL
ROCK HILL      CLEAR     44  37  76 W3        29.82R
ANDERSON       CLEAR     54  38  54 W8        29.83R
CLEMSON        NOT AVBL
GREENWOOD      CLEAR     51  37  58 SW7       29.85R


...................COASTAL AND OFFSHORE REPORTS..................

................LOCAL PIERS AND NC RESERVE................


STATION/POSITION TIME  SKY/WX   TEMP    WIND        PRES    VSBY
                                AIR SEA DIR/SP/G
                 (UTC)          (F)     (DEG/KT/KT) (MB)    (MI)
JOHNY MRCER PIER 0148            55 55  230/  4/  4 1007.5R
NC RESRV MASNBRO 0045            53     280/  1     1007.0
OCEAN CREST PIER NOT AVBL
SPRINGMAID  PIER NOT AVBL


................COASTAL AND OFFSHORE BUOYS................


STATION/POSITION TIME  SKY/WX   TEMP    WIND        PRES    VSBY
                                AIR SEA DIR/SP/G
                 (UTC)          (F)     (DEG/KT/KT) (MB)    (MI)
DIMNDSHOAL 41025 0150            59 74  280/ 21/ 27 1005.3R
WVE H/P(F/S)=  6/11 SWL H/P/D(F/S/D)=  3/100/11

CAPE LOOKOUT     0100            56     270/ 11/ 14 1006.1R
ONSLOW BAY 41036 NOT AVBL
ONSLOW BAY 41064 0108            62 65  290/ 16/ 21 1007.3R
ONSLOW BAY 41159 0143               64                N/A
WVE H/P(F/S)=  5/13 SWL H/P/D(F/S/D)=  2/ 90/13

MASNBO INL 41110 0159               57                N/A
WVE H/P(F/S)=  2/13 SWL H/P/D(F/S/D)=  2/100/13

WILM HARBR 41108 0156               56                N/A
WVE H/P(F/S)=  3/ 6 SWL H/P/D(F/S/D)=  2/130/11

27SE WRITB 41037 0108            63 67  290/ 17/ 23 1007.4R
FRYING PAN 41013 0150            65 68  270/ 17/ 21 1009.1R
WVE H/P(F/S)=  5/ 7 SWL H/P/D(F/S/D)=  3/210/ 7

SUNST NRSH 41024 0108            57 56  260/  6/  8 1008.5R
CAPRS NRSH 41029 0108            58 57  270/  8/ 12 1010.5R
EDISTO     41004 0150            65 68  270/ 19/ 21 1010.1R
WVE H/P(F/S)=  5/ 6 SWL H/P/D(F/S/D)=  2/ 10/13



..........OFFSHORE BUOYS BEYOND 100 NM OFFSHORE...........
.....IN A TRIANGLE---HAT TO BERMUDA TO BAHAMAS TO HAT.....


STATION/POSITION TIME  SKY/WX   TEMP    WIND        PRES    VSBY
                                AIR SEA DIR/SP/G
                 (UTC)          (F)     (DEG/KT/KT) (MB)    (MI)
150E HAT   41001 NOT AVBL
W BERMUDA  41048 0150            65 69  290/ 27/ 33 1001.7R
WVE H/P(F/S)= 16/11 SWL H/P/D(F/S/D)= 13/270/11

ATLANTIC S 41049 0150            72 72  210/ 19/ 23 1007.1R
WVE H/P(F/S)= 10/ 9 SWL H/P/D(F/S/D)=  8/190/ 9

E BAHAMAS  41046 0150            76 78  290/ 17/ 21 1014.0R
WVE H/P(F/S)= 10/11 SWL H/P/D(F/S/D)=  7/11

NE BAHAMAS 41047 0150            74 74  280/ 23/ 29 1009.8R
WVE H/P(F/S)= 14/11 SWL H/P/D(F/S/D)=  7/300/11

120E CANVRL41010 NOT AVBL

END




USA.gov is the U.S. government's official web portal to all federal, state and local government web resources and services.